EW1549 Weather Reports


time (UTC)temp
F
wind
direction
speed
knots
gust
knots
rain 1hr
in
rain 24hr
in
rain mn
in
humidity
%
barometer
mb
20221208000044 67 231 2.6 5.2 0.00 1.47 1.47 85 1009.7
20221207234544 67 230 1.7 2.6 0.00 1.47 1.47 84 1009.8
20221207233047 67 234 0.0 2.6 0.00 1.47 1.47 83 1009.9
20221207231542 68 226 1.7 5.2 0.00 1.47 1.47 82 1009.8
20221207230041 69 219 3.5 5.2 0.00 1.47 1.47 81 1009.9
20221207224541 68 185 1.7 6.1 0.00 1.47 1.47 83 1009.9
20221207223041 68 195 2.6 7.0 0.00 1.47 1.47 84 1009.9
20221207221540 68 249 2.6 4.3 0.00 1.47 1.47 85 1009.8
20221207220040 68 184 4.3 7.8 0.00 1.47 1.47 87 1009.8
20221207214540 68 181 0.9 8.7 0.00 1.47 1.47 87 1009.6
20221207213039 68 196 3.5 7.0 0.01 1.47 1.47 88 1009.5
20221207211537 67 206 3.5 9.6 0.02 1.47 1.47 88 1009.3
20221207210040 67 189 5.2 12.2 0.03 1.47 1.47 88 1009.2
20221207204541 68 197 4.3 13.0 0.03 1.47 1.47 87 1009.2
20221207203040 69 202 2.6 7.0 0.02 1.46 1.46 85 1009.1
20221207201535 69 304 1.7 8.7 0.02 1.46 1.46 84 1009.2
20221207200032 69 241 0.0 0.0 0.00 1.44 1.44 82 1009.0
20221207194536 69 241 0.0 3.5 0.00 1.44 1.44 82 1008.9
20221207193033 70 248 0.0 4.3 0.00 1.44 1.44 81 1008.8
20221207191531 70 170 0.0 5.2 0.00 1.44 1.44 82 1008.7
20221207190028 70 184 4.3 8.7 0.00 1.44 1.44 83 1008.5
20221207184528 69 173 2.6 10.4 0.00 1.44 1.44 85 1008.4
20221207183035 68 179 1.7 7.8 0.00 1.44 1.44 87 1008.4
20221207181531 69 153 2.6 6.1 0.00 1.44 1.44 88 1008.4
20221207180025 69 225 1.7 6.1 0.00 1.44 1.44 89 1008.4
20221207174525 70 150 0.0 5.2 0.00 1.44 1.44 89 1008.4
20221207173024 69 115 0.9 3.5 0.00 1.44 1.44 90 1008.4
20221207171528 69 209 6.1 9.6 0.00 1.44 1.44 90 1008.4
20221207170023 70 225 0.0 7.8 0.00 1.44 1.44 90 1008.3
20221207164623 69 21 0.9 3.5 0.00 1.44 1.44 91 1008.5
20221207163025 69 248 1.7 8.7 0.00 1.44 1.44 91 1008.5
20221207161521 69 246 2.6 8.7 0.00 1.44 1.44 91 1008.7
20221207160022 69 250 0.9 5.2 0.01 1.44 1.44 91 1008.6
20221207154520 69 215 0.0 3.5 0.07 1.44 1.44 92 1008.6
20221207153023 70 352 1.7 7.0 0.09 1.44 1.44 92 1008.2
20221207151520 69 321 2.6 7.0 0.09 1.44 1.44 91 1008.5
20221207150026 69 356 4.3 8.7 0.09 1.43 1.43 91 1008.9
20221207144534 69 108 0.9 5.2 0.02 1.37 1.37 91 1008.1
20221207143021 70 76 2.6 3.5 0.05 1.35 1.35 91 1008.5
20221207141514 70 75 2.6 5.2 0.05 1.35 1.35 91 1008.5
20221207140011 69 2 1.7 6.1 0.26 1.35 1.35 91 1009.0
20221207134511 68 184 2.6 10.4 0.84 1.35 1.35 90 1009.1
20221207133011 68 67 0.9 7.0 0.98 1.31 1.31 90 1009.6
20221207131508 68 353 0.9 4.3 1.03 1.30 1.30 90 1010.4
20221207130006 69 68 1.7 9.6 0.80 1.06 1.06 88 1010.2
20221207124506 69 269 1.7 9.6 0.23 0.49 0.49 87 1010.1
20221207123005 70 76 0.9 9.6 0.07 0.33 0.33 86 1010.4
20221207121504 70 177 0.9 9.6 0.02 0.27 0.27 86 1010.2
20221207120004 70 211 7.8 14.8 0.11 0.26 0.26 86 1010.5
20221207114503 70 203 7.0 12.2 0.22 0.26 0.26 87 1010.7
20221207113106 70 240 5.2 9.6 0.23 0.26 0.26 86 1010.8
20221207111657 70 179 2.6 7.8 0.23 0.26 0.26 86 1010.4
20221207110044 71 184 1.7 10.4 0.12 0.15 0.15 85 1010.2
20221207104533 71 231 5.2 13.9 0.01 0.04 0.04 84 1010.5
20221207103032 71 230 7.8 13.9 0.01 0.03 0.03 83 1010.9
20221207101534 71 198 8.7 16.5 0.01 0.03 0.03 82 1010.4
20221207100028 71 75 0.0 6.1 0.01 0.03 0.03 82 1010.3
20221207094533 71 200 2.6 7.0 0.01 0.03 0.03 82 1010.4
20221207093035 72 258 3.5 8.7 0.00 0.02 0.02 80 1010.1
20221207091526 71 273 0.0 5.2 0.00 0.02 0.02 80 1009.7
20221207090027 71 202 5.2 12.2 0.00 0.02 0.02 80 1009.4
20221207084533 71 179 0.0 6.1 0.00 0.02 0.02 80 1009.2
20221207083022 71 313 3.5 6.1 0.00 0.02 0.02 80 1008.8
20221207081528 70 246 3.5 12.2 0.00 0.02 0.02 82 1009.0
20221207080020 69 243 5.2 8.7 0.01 0.02 0.02 83 1009.8
20221207074519 69 214 4.3 7.8 0.02 0.02 0.02 81 1009.3
20221207073021 70 233 0.9 4.3 0.02 0.02 0.02 79 1009.5
20221207071518 70 222 1.7 7.8 0.02 0.02 0.02 78 1009.3
20221207070017 70 182 6.1 10.4 0.02 0.02 0.02 77 1009.9
20221207064515 71 198 6.1 10.4 0.00 0.00 0.00 75 1010.0
20221207063018 71 247 3.5 7.0 0.00 0.00 0.00 74 1009.3
20221207061513 71 221 3.5 10.4 0.00 0.00 0.00 74 1009.4
20221207060014 71 237 0.0 3.5 0.00 0.00 0.00 73 1009.2
20221207054513 71 136 0.0 5.2 0.00 0.00 0.00 72 1009.2
20221207053020 72 352 0.0 9.6 0.00 0.00 0.00 72 1009.3
20221207051511 71 230 0.0 2.6 0.00 0.00 0.00 73 1009.2
20221207050010 71 270 0.0 4.3 0.00 0.00 0.00 73 1009.4
20221207044509 71 104 4.3 9.6 0.00 0.00 0.00 72 1009.4
20221207043006 71 102 1.7 4.3 0.00 0.00 0.00 69 1010.2
20221207041513 71 202 0.0 3.5 0.00 0.00 0.00 68 1010.2
20221207040005 71 296 1.7 3.5 0.00 0.00 0.00 66 1010.0
20221207034506 72 239 0.9 6.1 0.00 0.00 0.00 66 1009.9
20221207033001 71 77 1.7 7.0 0.00 0.00 0.00 62 1009.9
20221207031559 70 97 3.5 5.2 0.00 0.00 0.00 64 1010.0
20221207030058 70 104 0.9 4.3 0.00 0.00 0.00 65 1010.1
20221207024603 70 211 0.9 5.2 0.00 0.00 0.00 63 1010.2
20221207023108 70 256 2.6 7.0 0.00 0.00 0.00 66 1010.3
20221207021553 70 100 3.5 7.0 0.00 0.00 0.00 62 1010.4
20221207020051 70 94 2.6 6.1 0.00 0.00 0.00 62 1010.6
20221207014556 70 203 0.0 7.0 0.00 0.00 0.00 62 1010.9
20221207013059 70 215 1.7 4.3 0.00 0.00 0.00 63 1011.3
20221207011544 69 162 1.7 5.2 0.00 0.00 0.00 63 1011.4
20221207010041 69 200 1.7 7.0 0.00 0.00 0.00 66 1011.5
20221207004549 67 217 0.0 5.2 0.00 0.00 0.00 69 1011.7
20221207003031 67 164 0.0 3.5 0.00 0.00 0.00 68 1012.0
20221207001530 67 128 0.0 2.6 0.00 0.00 0.00 68 1012.4